TimePDT,TemperatureF,Dew PointF,Humidity,Sea Level PressureIn,VisibilityMPH,Wind Direction,Wind SpeedMPH,Gust SpeedMPH,PrecipitationIn,Events,Conditions,WindDirDegrees,DateUTC
12:53 AM,55.9,48.9,77,30.10,10.0,West,11.5,-,N/A,,Clear,280,2013-07-04 07:53:00
1:53 AM,55.0,50.0,83,30.10,10.0,West,11.5,-,N/A,,Clear,270,2013-07-04 08:53:00
2:53 AM,55.0,48.9,80,30.11,10.0,West,5.8,-,N/A,,Clear,260,2013-07-04 09:53:00
3:53 AM,55.0,50.0,83,30.10,10.0,West,10.4,-,N/A,,Clear,280,2013-07-04 10:53:00
4:53 AM,54.0,48.9,83,30.10,10.0,West,10.4,-,N/A,,Clear,260,2013-07-04 11:53:00
5:53 AM,52.0,48.0,86,30.10,10.0,West,5.8,-,N/A,,Clear,270,2013-07-04 12:53:00
6:53 AM,55.9,50.0,80,30.10,10.0,West,6.9,-,N/A,,Clear,280,2013-07-04 13:53:00
7:53 AM,57.9,53.1,84,30.11,10.0,NW,8.1,-,N/A,,Clear,310,2013-07-04 14:53:00
8:53 AM,61.0,53.1,75,30.11,10.0,Variable,6.9,-,N/A,,Clear,0,2013-07-04 15:53:00
9:53 AM,61.0,53.1,75,30.12,10.0,WNW,6.9,-,N/A,,Clear,300,2013-07-04 16:53:00
10:53 AM,63.0,53.1,70,30.12,10.0,NNW,9.2,-,N/A,,Clear,330,2013-07-04 17:53:00
11:53 AM,64.0,53.1,67,30.12,10.0,NNW,6.9,-,N/A,,Partly Cloudy,330,2013-07-04 18:53:00
12:53 PM,64.0,52.0,65,30.12,10.0,NW,10.4,-,N/A,,Clear,310,2013-07-04 19:53:00
1:53 PM,64.0,52.0,65,30.11,10.0,WNW,8.1,-,N/A,,Clear,300,2013-07-04 20:53:00
2:53 PM,66.0,52.0,60,30.10,10.0,WNW,8.1,-,N/A,,Scattered Clouds,300,2013-07-04 21:53:00
3:53 PM,66.0,53.1,63,30.09,10.0,WNW,10.4,-,N/A,,Clear,290,2013-07-04 22:53:00
4:53 PM,64.9,52.0,63,30.08,10.0,NNW,10.4,18.4,N/A,,Clear,330,2013-07-04 23:53:00
5:53 PM,63.0,52.0,67,30.08,10.0,NW,13.8,18.4,N/A,,Clear,310,2013-07-05 00:53:00
6:53 PM,62.1,52.0,70,30.07,10.0,WNW,8.1,-,N/A,,Clear,290,2013-07-05 01:53:00
7:53 PM,60.1,52.0,75,30.07,10.0,WNW,12.7,-,N/A,,Clear,290,2013-07-05 02:53:00
8:53 PM,57.0,52.0,83,30.06,10.0,West,6.9,-,N/A,,Clear,280,2013-07-05 03:53:00
9:53 PM,55.0,52.0,89,30.06,10.0,WNW,8.1,-,N/A,,Clear,290,2013-07-05 04:53:00
10:53 PM,54.0,51.1,90,30.06,10.0,West,6.9,-,N/A,,Clear,280,2013-07-05 05:53:00
11:53 PM,53.1,50.0,89,30.05,10.0,WNW,4.6,-,N/A,,Clear,290,2013-07-05 06:53:00